TimeCDT,TemperatureF,Dew PointF,Humidity,Sea Level PressureIn,VisibilityMPH,Wind Direction,Wind SpeedMPH,Gust SpeedMPH,PrecipitationIn,Events,Conditions,WindDirDegrees,DateUTC
12:53 AM,39.9,27.0,60,30.05,10.0,NNW,15.0,25.3,N/A,,Clear,330,2013-03-25 05:53:00
1:53 AM,37.9,27.0,65,30.07,10.0,NNW,9.2,-,N/A,,Clear,330,2013-03-25 06:53:00
2:53 AM,37.0,28.0,70,30.06,10.0,NNW,8.1,-,N/A,,Clear,340,2013-03-25 07:53:00
3:53 AM,36.0,27.0,70,30.06,10.0,NNW,9.2,-,N/A,,Clear,330,2013-03-25 08:53:00
4:53 AM,34.0,27.0,75,30.07,10.0,NNW,5.8,-,N/A,,Clear,330,2013-03-25 09:53:00
5:53 AM,34.0,27.0,75,30.09,10.0,NNW,10.4,-,N/A,,Clear,330,2013-03-25 10:53:00
6:53 AM,33.1,26.1,75,30.13,10.0,NNW,13.8,21.9,N/A,,Clear,330,2013-03-25 11:53:00
7:53 AM,34.0,27.0,75,30.16,10.0,NNW,15.0,-,N/A,,Clear,330,2013-03-25 12:53:00
8:53 AM,37.0,26.1,65,30.19,10.0,NNW,19.6,24.2,N/A,,Clear,330,2013-03-25 13:53:00
9:53 AM,41.0,21.9,47,30.20,10.0,NNW,16.1,25.3,N/A,,Clear,340,2013-03-25 14:53:00
10:53 AM,45.0,19.0,36,30.21,10.0,NNW,16.1,27.6,N/A,,Clear,340,2013-03-25 15:53:00
11:53 AM,48.0,17.1,29,30.22,10.0,WNW,13.8,27.6,N/A,,Clear,300,2013-03-25 16:53:00
12:53 PM,51.1,15.1,24,30.19,10.0,NW,17.3,24.2,N/A,,Clear,320,2013-03-25 17:53:00
1:53 PM,53.1,14.0,21,30.17,10.0,NW,13.8,29.9,N/A,,Clear,320,2013-03-25 18:53:00
2:53 PM,55.0,12.9,19,30.14,10.0,WNW,19.6,31.1,N/A,,Clear,300,2013-03-25 19:53:00
3:53 PM,55.0,15.1,21,30.12,10.0,NW,19.6,29.9,N/A,,Clear,320,2013-03-25 20:53:00
4:53 PM,55.0,18.0,23,30.11,10.0,NNW,15.0,23.0,N/A,,Clear,340,2013-03-25 21:53:00
5:53 PM,55.0,18.0,23,30.13,10.0,NW,15.0,24.2,N/A,,Clear,320,2013-03-25 22:53:00
6:53 PM,52.0,19.0,27,30.14,10.0,NW,13.8,20.7,N/A,,Clear,320,2013-03-25 23:53:00
7:53 PM,48.0,19.9,33,30.17,10.0,NW,6.9,-,N/A,,Clear,320,2013-03-26 00:53:00
8:53 PM,44.1,25.0,47,30.21,10.0,NNW,4.6,-,N/A,,Clear,340,2013-03-26 01:53:00
9:53 PM,43.0,25.0,49,30.23,10.0,North,3.5,-,N/A,,Clear,350,2013-03-26 02:53:00
10:53 PM,39.0,26.1,60,30.26,10.0,NNW,6.9,-,N/A,,Clear,330,2013-03-26 03:53:00
11:53 PM,41.0,24.1,51,30.28,10.0,North,5.8,-,N/A,,Clear,350,2013-03-26 04:53:00